Simultaneous Nadir Overpasses (SNOs) Predictions

Prediction of SNOs over PacNW region [( 10.00, 139.50) to ( 22.70, 165.60)] between AQUA and NPP Satellites:

Table of predicted SNOs over PacNW region for the next 30.0 days since TLE Epoch: 9/24/2016
Index Date (AQUA) Time (AQUA) AQUA Lat,Lon Date (NPP) Time (NPP) NPP Lat,Lon Distance(km) Time Diff (sec)
1 09/26/2016 15:09:24 22.61, 159.85 09/26/2016 15:11:32 23.16, 157.30 268.46 128
2 09/29/2016 03:31:15 22.65, 147.53 09/29/2016 03:27:46 22.46, 145.87 171.31 209
3 10/04/2016 15:58:54 22.59, 147.47 10/04/2016 16:02:22 23.36, 144.62 303.41 208
4 10/07/2016 02:41:51 22.65, 159.88 10/07/2016 02:38:22 26.72, 157.43 516.25 209
5 10/12/2016 15:09:27 22.63, 159.83 10/12/2016 15:11:46 23.24, 157.25 272.97 139
6 10/15/2016 03:31:07 22.03, 147.66 10/15/2016 03:27:48 21.70, 146.00 175.37 199
7 10/20/2016
